Home   Weather   Toronto   Past weeks
Flag for Canada

Past Weather in Toronto, Ontario, Canada — Yesterday and Last 2 Weeks

Now
27 °F

Scattered clouds.


Feels Like: 17 °F
Forecast: 23 / 30 °F
Wind: 9 mph from Northwest

Location: Toronto Pearson International Airport

Current Time: Dec 18, 2018 at 12:53:00 pm

Latest Report: Dec 18, 2018 at 12:00 pm


Visibility: 15 mi

Pressure: 30.24 "Hg

Humidity: 59%

Dew Point: 14 °F

Location of TorontoLocation

Past Weather in Toronto — Graph

°F

Toronto Temperature Yesterday

Maximum temperature yesterday: 37 °F (at 10:00 am)
Minimum temperature yesterday: 32 °F (at 2:00 am)
Average temperature yesterday: 34 °F

High & Low Weather Summary for the Past Weeks

 TemperatureHumidityPressure
High41 °F (Dec 14, 3:00 pm)93% (Dec 13, 3:40 am)30.53 "Hg (Dec 13, 3:40 am)
Low16 °F (Dec 7, 6:00 am)42% (Dec 7, 2:00 pm)29.72 "Hg (Dec 3, 11:00 am)
Average31 °F75%30.15 "Hg
* Reported Dec 3 11:00 am — Dec 18 11:00 am, Toronto. Weather by CustomWeather, © 2018

Note: Actual official high and low records may vary slightly from our data, if they occured in-between our weather recording intervals... More about our weather records

Advertising

Toronto Weather History for the Previous 24 Hours

Scroll right to see more
 ConditionsComfort  
Time TempWeatherWind HumidityBarometerVisibility
11:00 am
Tue, Dec 18
25 °FScattered clouds.7 mph63%30.25 "Hg15 mi
10:00 am23 °FScattered clouds.7 mph68%30.27 "Hg15 mi
9:00 am23 °FScattered clouds.13 mph68%30.26 "Hg15 mi
8:05 am21 °FSnow flurries. Partly sunny.9 mph74%30.25 "Hg15 mi
7:00 am21 °FPassing clouds.12 mph74%30.23 "Hg15 mi
6:00 am23 °FOvercast.14 mph68%30.21 "Hg15 mi
5:00 am23 °FPassing clouds.15 mph74%30.18 "Hg15 mi
4:00 am25 °FPassing clouds.10 mph69%30.15 "Hg15 mi
3:00 am27 °FPassing clouds.9 mph69%30.14 "Hg15 mi
1:00 am30 °FOvercast.9 mph59%30.08 "Hg15 mi
12:00 am32 °FOvercast.13 mph60%30.07 "Hg15 mi
11:00 pm
Mon, Dec 17
32 °FOvercast.15 mph60%30.06 "Hg15 mi
10:00 pm32 °FPassing clouds.20 mph60%30.05 "Hg15 mi
9:00 pm32 °FOvercast.17 mph60%30.04 "Hg15 mi
8:00 pm34 °FOvercast.17 mph56%30.04 "Hg15 mi
7:00 pm34 °FOvercast.23 mph56%30.01 "Hg15 mi
6:00 pm34 °FOvercast.22 mph56%29.98 "Hg15 mi
5:00 pm36 °FMostly cloudy.18 mph56%29.95 "Hg15 mi
4:00 pm36 °FPartly sunny.17 mph56%29.93 "Hg15 mi
3:00 pm36 °FOvercast.20 mph56%29.90 "Hg15 mi
2:00 pm36 °FOvercast.14 mph60%29.88 "Hg15 mi
1:00 pm36 °FOvercast.21 mph60%29.87 "Hg15 mi
12:00 pm36 °FOvercast.22 mph65%29.88 "Hg15 mi
Weather by CustomWeather, © 2018

See weather overview